Preview of NWS' New Version of Forecast
This preview is not operational and should not be used for support decisions.

Regional Weather Roundup (RWR)

Issued by National Weather Service (NWS)

                            
000
ASUS43 KLSX 241707
RWRMO 

WEATHER SUMMARY FOR MISSOURI
NATIONAL WEATHER SERVICE SPRINGFIELD MO
1200 PM CDT SUN MAR 24 2019

NOTE: "FAIR" INDICATES FEW OR NO CLOUDS BELOW 12,000 FEET WITH NO
       SIGNIFICANT WEATHER AND/OR OBSTRUCTIONS TO VISIBILITY.
       CURRENT SKY AND/OR WEATHER CONDITIONS ARE NOT AVAILABLE FOR
       CHILLICOTHE AND FARMINGTON.

MOZ001>031-035>038-043-044-053-054-241800-
...NORTHERN AND WESTERN MISSOURI...
  
CITY           SKY/WX    TMP DP  RH WIND       PRES   REMARKS
KANSAS CTY INT CLOUDY    52  45  77 W8G20     29.96R                  
KANSAS C DTWN  CLOUDY    56  45  66 W14       29.95S                  
LEE'S SUMMIT   PTSUNNY   59  45  59 W13       29.95F                  
ST JOSEPH        N/A    N/A N/A N/A MISG      29.96R                  
CHILLICOTHE      N/A     52  49  89 CALM      29.97S                  
KIRKSVILLE     CLOUDY    53  49  86 E6        29.97F                  
     
$$
MOZ066>068-077>081-088>096-101>105-241800-
...SOUTHWEST MISSOURI...
  
CITY           SKY/WX    TMP DP  RH WIND       PRES   REMARKS
SPRINGFIELD    CLOUDY    63  55  75 S13       29.98F                  
JOPLIN         CLOUDY    61  56  83 SW9       29.99S                  
BRANSON        PTSUNNY   66  55  68 SW10G17   30.02F                  
               
$$
MOZ032>034-039>042-045>050-055>058-069>072-241800-
...CENTRAL MISSOURI...  
  
CITY           SKY/WX    TMP DP  RH WIND       PRES   REMARKS
COLUMBIA       CLOUDY    60  49  66 SW14      29.99F                  
JEFFERSON CITY CLOUDY    60  48  64 SW8       29.99F                  
ROLLA          CLOUDY    60  49  66 SW10      30.00F                  
SEDALIA        CLOUDY    57  52  83 SW12G21   29.97F                  
WHITEMAN AFB   PTSUNNY   60  53  78 SW14      29.92F                  
WARRENSBURG    CLOUDY    55  50  82 SW7       29.96F                  
OSAGE BEACH    CLOUDY    63  53  70 SW9       29.99F                  
               
$$
MOZ051-052-059>065-241800-
...EAST CENTRAL MISSOURI...
  
CITY           SKY/WX    TMP DP  RH WIND       PRES   REMARKS
ST LOUIS INTL  PTSUNNY   56  46  69 S9        30.02F                  
SPIRIT OF STL  MOSUNNY   60  49  66 SW5       30.01F                  
ST CHARLES     MOSUNNY   56  49  77 S6        30.02F                  
                   
$$
MOZ072>076-082>087-097>100-106>115-241800-
...SOUTH CENTRAL AND SOUTHEAST MISSOURI...
  
CITY           SKY/WX    TMP DP  RH WIND       PRES   REMARKS
CAPE GIRARDEAU CLOUDY    60  52  74 S12       30.07F                  
FARMINGTON     PTSUNNY   59  50  72 S14       30.04F                  
POPLAR BLUFF   CLOUDY    62  52  69 SW14G26   30.07F                  
WEST PLAINS    PTSUNNY   63  54  72 S14G21    30.05F                  
                                       
$$